Location: Oberkirch
(48.5323°N, 8.0787°E)
Time: 16:32:25
(UTC+00:00)

SL-24 R/B - RUBIN 2 - Pass Details

Date: 20 February 2026
Orbit: 603 x 984 km, 64.6° (Epoch: 8 March)

Event Time Altitude Azimuth Distance (km) Brightness Sun altitude
Exits shadow 05:27:26 - 323° (NW) 2,582 6.3 -10.5°
Reaches altitude 10° 05:30:39 10° 356° (N) 1,971 6.0 -9.9°
Maximum altitude 05:31:33 11° 8° (N) 1,931 6.1 -9.8°
Drops below altitude 10° 05:32:27 10° 20° (NNE) 1,961 6.3 -9.6°
Sets 05:36:46 0° 61° (ENE) 2,864 8.0 -8.9°
